STARLINK-1172, 45074

Orbit data source: Space-Track

STARLINK-1172, 45074 is a payload satellite owned by SpaceX/Seattle (US) in LEO that was launched on Wed, 29 Jan 2020 UTC via an FALCON 9 launch vehicle from the Air Force Eastern Test Range (AFETR). Payload-class satellites include a variety of spacecraft equipped with specific instruments for various scientific and technological missions. These include communications satellites like Starlink; space stations such as the ISS; scientific satellites like the Hubble; Earth observation satellites from companies like Planet Labs, Umbra, and HawkEye 360; GPS; miniature CubeSats for education and research; and military/defense satellites.

Loading next visibility...
Identifier
45074, 2020-006AG
Orbit
LEO
Country
Flag of USUS
Related business
Manufacturer
SpaceX/Seattle
Mission
Operational Commercial Communications
Bus & Motor
STARLINK, Unknown motor
Mass
260 kg wet, ~248 kg dry
Launch date (UTC)
2020-01-29 (6 years ago)
Launch vehicle
FALCON 9
Launch site
Air Force Eastern Test Range (AFETR)
Object type
Payload
Rocket body
Debris
Shape & HBR
Box + 1 Pan, 4.4 m
Radar Cross Section
13.562 m², Large (>1 m²)

Expand to show TLE details & history
Last TLE update: 20 hours ago

TLE from 20 hours ago
0 STARLINK-1172
1 45074U 20006AG  25242.19460388  .00001100  00000-0  92733-4 0  9992
2 45074  53.0560  46.2743 0001122  85.1383 274.9734 15.06398105307870
Epoch: 2025-08-30T04:40Z
TLE epoch observation values (Epoch: 2025-08-30T04:40:13.775Z)
Latitude
-0.00002°
Longitude
-2.4155°
Altitude
548.029 km
Speed
7.589 km/s
True Right ascension
03h 05m 05s
True Declination
0° 00' 00"
Sunlit
Object was in daylight at epoch
Visualization orbit readout
Latitude
Unknown
Longitude
Unknown
Altitude
Unknown
Speed
Unknown
Apparent Right ascension
Unknown
Apparent Declination
Unknown
Sunlit
N/A
Visualization observer readout
Local Sidereal Time
16:45:58
Azimuth
Unknown
Elevation
Unknown
Doppler factor
Unknown
Orbital elements
Apogee altitude
548.265 km
Perigee altitude
546.711 km
Semi-major axis
6,925.625 km
Eccentricity
0.00011
Inclination
53.056°
RAAN
46.2743°
Arg. of periapsis
85.1383°
True anomaly
274.96059°
Mean anomaly
274.9734°
Eccentric anomaly
274.967°
Mean motion
3.76578 °/min
Orbital period
95.6 mins
BSTAR
0.000092733
Loading maneuver chart data...
Computing Atmospheric mass density...

Documentation

Showing up to 5 results
|